Weather History for Fryeburg, ME

Change the Weather History Date:

Saturday, December 7, 2013

  Actual Average Record
Temperature  
Mean Temperature 30 °F -  
Max Temperature 34 °F 36 °F 69 °F (1998)
Min Temperature 25 °F 17 °F -2 °F (2007)
Degree Days  
Heating Degree Days 35    
Moisture  
Dew Point 13 °F    
Average Humidity 49    
Maximum Humidity 75    
Minimum Humidity 36    
Precipitation  
Precipitation 0.00 in - - ()
Sea Level Pressure  
Sea Level Pressure 30.23 in    
Wind  
Wind Speed 7 mph (WNW)    
Max Wind Speed 20 mph    
Max Gust Speed 32 mph    
Visibility 10 miles    
Events      
Averages and records for this station are not official NWS values.
T = Trace of Precipitation, MM = Missing Value Source: NWS Daily Summary

Daily Weather History Graph

Daily Weather History Graph

Search for Another Location

Airport:

Trip Planner

Search our weather history database for the weather conditions in past years. The results will help you decide how hot, cold, wet, or windy it might be!

Date:

Astronomy

Dec. 07, 2013 Rise Set
Actual Time 7:04 AM EST 4:05 PM EST
Civil Twilight 6:32 AM EST 4:38 PM EST
Nautical Twilight 5:55 AM EST 5:14 PM EST
Astronomical Twilight 5:20 AM EST 5:49 PM EST
Moon 10:41 AM EST (12/7) 9:51 PM EST (12/7)
Length of Visible Light 10h 06m
Length of Day
9h 00m
Waxing Crescent, 29% of the Moon is Illuminated
Dec 7
Waxing Crescent
Dec 9
First Quarter
Dec 17
Full
Dec 25
Last Quarter
Jan 1
New

Hourly Weather History & Observations

Time (EST) Temp. Windchill Dew Point Humidity Pressure Visibility Wind Dir Wind Speed Gust Speed Precip Events Conditions
12:54 AM 34.0 °F 31.0 °F 21.9 °F 61% 30.08 in 10.0 mi West 3.5 mph - N/A   Overcast
1:54 AM 33.1 °F 28.7 °F 23.0 °F 66% 30.09 in 10.0 mi ENE 4.6 mph - N/A   Overcast
2:54 AM 33.1 °F - 24.1 °F 70% 30.09 in 10.0 mi Calm Calm - N/A   Overcast
3:54 AM 32.0 °F - 25.0 °F 75% 30.09 in 10.0 mi Calm Calm - N/A   Overcast
4:54 AM 34.0 °F 31.0 °F 21.9 °F 61% 30.10 in 10.0 mi West 3.5 mph - N/A   Overcast
5:54 AM 33.1 °F - 24.1 °F 70% 30.13 in 10.0 mi Calm Calm - N/A   Overcast
6:54 AM 34.0 °F 25.0 °F 19.0 °F 54% 30.15 in 10.0 mi West 12.7 mph 20.7 mph N/A   Mostly Cloudy
7:54 AM 33.1 °F 24.4 °F 18.0 °F 54% 30.15 in 10.0 mi NW 11.5 mph 20.7 mph N/A   Scattered Clouds
8:54 AM 33.1 °F 26.1 °F 16.0 °F 50% 30.17 in 10.0 mi WNW 8.1 mph 17.3 mph N/A   Clear
9:54 AM 34.0 °F 28.8 °F 15.1 °F 46% 30.20 in 10.0 mi Variable 5.8 mph 17.3 mph N/A   Clear
10:54 AM 34.0 °F 25.0 °F 12.9 °F 42% 30.19 in 10.0 mi West 12.7 mph 28.8 mph N/A   Clear
11:54 AM 34.0 °F 22.7 °F 10.9 °F 38% 30.19 in 10.0 mi West 19.6 mph 32.2 mph N/A   Clear
12:54 PM 34.0 °F 23.8 °F 10.9 °F 38% 30.20 in 10.0 mi West 16.1 mph 27.6 mph N/A   Clear
1:54 PM 33.1 °F 23.4 °F 10.0 °F 38% 30.21 in 10.0 mi WNW 13.8 mph 26.5 mph N/A   Clear
2:54 PM 30.0 °F 19.5 °F 8.1 °F 40% 30.25 in 10.0 mi WNW 13.8 mph 25.3 mph N/A   Clear
3:54 PM 28.9 °F 18.6 °F 6.1 °F 38% 30.27 in 10.0 mi WNW 12.7 mph 27.6 mph N/A   Clear
4:54 PM 28.9 °F 19.2 °F 5.0 °F 36% 30.30 in 10.0 mi NW 11.5 mph 21.9 mph N/A   Partly Cloudy
5:54 PM 28.0 °F 17.5 °F 6.1 °F 39% 30.31 in 10.0 mi WNW 12.7 mph 19.6 mph N/A   Clear
6:54 PM 28.0 °F 17.0 °F 6.1 °F 39% 30.33 in 10.0 mi West 13.8 mph 21.9 mph N/A   Clear
7:54 PM 27.0 °F 18.0 °F 6.1 °F 41% 30.36 in 10.0 mi WNW 9.2 mph - N/A   Clear
8:54 PM 26.1 °F 16.8 °F 7.0 °F 44% 30.37 in 10.0 mi West 9.2 mph 20.7 mph N/A   Clear
9:54 PM 26.1 °F 13.6 °F 8.1 °F 47% 30.38 in 10.0 mi West 16.1 mph 25.3 mph N/A   Clear
10:54 PM 26.1 °F 16.8 °F 8.1 °F 47% 30.40 in 10.0 mi West 9.2 mph 24.2 mph N/A   Clear
11:54 PM 25.0 °F 14.8 °F 7.0 °F 46% 30.41 in 10.0 mi West 10.4 mph 25.3 mph N/A   Clear